This is the latest recevied weather packets stored in our database for station/object N4DBJ. If no packets are shown the sender has not sent any weather packets the latest 1 day(s).
| Time | Temp. | Humidity | Pressure | Rain* | Wind** | Luminosity | Snow |
|---|---|---|---|---|---|---|---|
| 1778054274 | 12.78° C | 99% | 1005.5 hPa | 0 mm | 0.45 m/s, 10° | 0 W/m² | - |
| 1778053971 | 13.33° C | 99% | 1005.7 hPa | 0 mm | 0.45 m/s, 345° | 0 W/m² | - |
| 1778053668 | 13.89° C | 99% | 1006 hPa | 0 mm | 0.89 m/s, 85° | 0 W/m² | - |
| 1778053365 | 13.89° C | 99% | 1005.3 hPa | 0 mm | 0.89 m/s, 5° | 0 W/m² | - |
| 1778053063 | 14.44° C | 99% | 1004.7 hPa | 0 mm | 0 m/s | 0 W/m² | - |
| 1778052760 | 15.56° C | 99% | 1004.9 hPa | 0 mm | 1.34 m/s, 14° | 0 W/m² | - |
| 1778052457 | 17.22° C | 99% | 1004.4 hPa | 0 mm | 0.89 m/s, 311° | 0 W/m² | - |
| 1778052155 | 17.78° C | 99% | 1004.5 hPa | 0 mm | 0 m/s | 0 W/m² | - |
| 1778051852 | 17.78° C | 99% | 1004.3 hPa | 0 mm | 0 m/s | 0 W/m² | - |
| 1778051550 | 17.78° C | 99% | 1004.5 hPa | 0 mm | 0.45 m/s, 84° | 0 W/m² | - |
| 1778051247 | 17.78° C | 99% | 1004.5 hPa | 0 mm | 0.45 m/s, 237° | 0 W/m² | - |
| 1778050944 | 17.78° C | 99% | 1004.4 hPa | 0 mm | 0.45 m/s, 288° | 0 W/m² | - |
| 1778050642 | 17.78° C | 99% | 1004.3 hPa | 0 mm | 0 m/s | 0 W/m² | - |
| 1778050338 | 17.78° C | 99% | 1004.3 hPa | 0 mm | 0 m/s | 0 W/m² | - |
| 1778050035 | 17.78° C | 99% | 1004.3 hPa | 0 mm | 0 m/s | 0 W/m² | - |
| 1778049731 | 17.78° C | 99% | 1004.1 hPa | 0 mm | 0.45 m/s, 194° | 0 W/m² | - |
| 1778049429 | 17.78° C | 99% | 1003.9 hPa | 0 mm | 0.45 m/s, 40° | 0 W/m² | - |
| 1778049126 | 17.78° C | 99% | 1004.1 hPa | 0 mm | 0.45 m/s, 284° | 0 W/m² | - |
| 1778048824 | 18.33° C | 98% | 1004 hPa | 0 mm | 1.34 m/s, 139° | 0 W/m² | - |
| 1778048521 | 18.33° C | 97% | 1003.8 hPa | 0 mm | 0.45 m/s, 27° | 0 W/m² | - |
| 1778048216 | 18.33° C | 97% | 1003.4 hPa | 0 mm | 0.45 m/s, 304° | 0 W/m² | - |
| 1778047914 | 18.33° C | 96% | 1003.4 hPa | 0 mm | 0.45 m/s, 248° | 0 W/m² | - |
| 1778047613 | 18.89° C | 95% | 1003.4 hPa | 0 mm | 0.45 m/s, 166° | 0 W/m² | - |
| 1778047309 | 18.89° C | 93% | 1003.8 hPa | 0 mm | 0 m/s | 0 W/m² | - |
| 1778047006 | 19.44° C | 92% | 1003.6 hPa | 0 mm | 0.45 m/s, 78° | 0 W/m² | - |
* Rain latest hour (hover to see other rain measurements)
** Current wind speed in m/s (hover to see current wind gust speed)